64013000, 5301503, 2016-11-25 00:00:00, 13.35760, 109.26660,   0,  11,   1, -5.00, 1010.90, 15.00, 0,  10, 255, 0.000
64013000, 5301503, 2016-11-25 01:00:00, 13.35760, 109.26660,   0,  11,   1, -5.00, 1011.40, 15.00, 0,   8, 255, 0.000
64013000, 5301503, 2016-11-25 02:00:00, 13.35760, 109.26660,   0,  12,   1, -5.00, 1011.40, 15.00, 1,   9, 255, 0.000
64013000, 5301503, 2016-11-25 03:00:00, 13.35760, 109.26660,   0,  11,   1, -5.00, 1011.40, 15.00, 0,   8, 255, 0.000
64013000, 5301503, 2016-11-25 04:00:00, 13.35760, 109.26660,   0,  11,   1, -5.00, 1010.70, 15.00, 1,   9, 255, 0.000
64013000, 5301503, 2016-11-25 05:00:00, 13.35760, 109.26660,   0,  10,   1, -5.00, 1009.70, 15.00, 1,   9, 255, 0.000
64013000, 5301503, 2016-11-25 06:00:00, 13.35760, 109.26660,   0,  11,   1, -5.00, 1008.90, 15.00, 1,   8, 255, 0.000
64013000, 5301503, 2016-11-25 07:00:00, 13.35760, 109.26660,   0,  11,   1, -5.00, 1008.30, 15.00, 1,   7, 255, 0.000
64013000, 5301503, 2016-11-25 08:00:00, 13.35760, 109.26660,   0,  12,   1, -5.00, 1008.20, 15.00, 0,   8, 255, 0.000
64013000, 5301503, 2016-11-25 09:00:00, 13.35760, 109.26660,   0,  11,   1, -5.00, 1008.40, 15.00, 1,   9, 255, 0.000
64013000, 5301503, 2016-11-25 10:00:00, 13.35760, 109.26660,   0,  11,   1, -5.00, 1008.80, 15.00, 0,   9, 255, 0.000
64013000, 5301503, 2016-11-25 11:00:00, 13.35760, 109.26660,   0,  11,   1, -5.00, 1009.50, 15.00, 0,   9, 255, 0.000
64013000, 5301503, 2016-11-25 12:00:00, 13.35760, 109.26660,   0,  11,   1, -5.00, 1010.20, 15.00, 0,   8, 255, 0.000
64013000, 5301503, 2016-11-25 13:00:00, 13.35760, 109.26660,   0,  11,   1, -5.00, 1010.60, 15.00, 1,   9, 255, 0.000
64013000, 5301503, 2016-11-25 14:00:00, 13.35760, 109.26660,   0,  12,   1, -5.00, 1010.50, 15.00, 0,   1, 255, 0.000
64013000, 5301503, 2016-11-25 15:00:00, 13.35760, 109.26660,   0,  12,   1, -5.00, 1010.10, 15.00, 1,   8, 255, 0.000
64013000, 5301503, 2016-11-25 16:00:00, 13.35760, 109.26660,   0,  12,   1, -5.00, 1009.90, 15.00, 0,  11, 255, 0.000
64013000, 5301503, 2016-11-25 17:00:00, 13.35760, 109.26660,   0,  11,   1, -5.00, 1009.90, 15.00, 0,   8, 255, 0.000
64013000, 5301503, 2016-11-25 18:00:00, 13.35760, 109.26660,   0,  11,   1, -5.00, 1009.40, 15.00, 0,  10, 255, 0.000
64013000, 5301503, 2016-11-25 19:00:00, 13.35760, 109.26660,   0,  10,   1, -5.00, 1009.10, 15.00, 0,   8, 255, 0.000
64013000, 5301503, 2016-11-25 20:00:00, 13.35760, 109.26660,   0,  12,   1, -5.00, 1008.60, 15.00, 0,  11, 255, 0.000
64013000, 5301503, 2016-11-25 21:00:00, 13.35760, 109.26660,   0,  11,   1, -5.00, 1008.70, 15.00, 0,  10, 255, 0.000
64013000, 5301503, 2016-11-25 22:00:00, 13.35760, 109.26660,   0,  11,   1, -5.00, 1009.00, 15.00, 0,   9, 255, 0.000
64013000, 5301503, 2016-11-25 23:00:00, 13.35760, 109.26660,   0,  12,   1, -5.00, 1009.80, 15.00, 0,  11, 255, 0.000
64013000, 5301503, 2016-11-26 00:00:00, 13.35760, 109.26660,   0,  10,   1, -5.00, 1010.70, 15.00, 0,  14, 255, 0.000
64013000, 5301503, 2016-11-26 01:00:00, 13.35760, 109.26660,   0,  11,   1, -5.00, 1011.60, 15.00, 0,  10, 255, 0.000
64013000, 5301503, 2016-11-26 02:00:00, 13.35760, 109.26660,   0,  12,   1, -5.00, 1012.00, 15.00, 1,  11, 255, 0.000
64013000, 5301503, 2016-11-26 03:00:00, 13.35760, 109.26660,   0,  11,   1, -5.00, 1011.80, 15.00, 1,   4, 255, 0.000
64013000, 5301503, 2016-11-26 04:00:00, 13.35760, 109.26660,   0,  11,   1, -5.00, 1011.00, 15.00, 1,  11, 255, 0.000
64013000, 5301503, 2016-11-26 05:00:00, 13.35760, 109.26660,   0,  11,   2, -5.00, 1010.10, 15.00, 1,  10, 255, 0.000
64013000, 5301503, 2016-11-26 06:00:00, 13.35760, 109.26660,   0,  11,   1, -5.00, 1009.10, 15.00, 1,   9, 255, 0.000
64013000, 5301503, 2016-11-26 07:00:00, 13.35760, 109.26660,   0,  11,   1, -5.00, 1008.30, 15.00, 0,   8, 255, 0.000
64013000, 5301503, 2016-11-26 08:00:00, 13.35760, 109.26660,   0,  11,   1, -5.00, 1008.00, 15.00, 0,  16, 255, 0.000
64013000, 5301503, 2016-11-26 09:00:00, 13.35760, 109.26660,   0,  11,   1, -5.00, 1008.00, 15.00, 1,   8, 255, 0.000
64013000, 5301503, 2016-11-26 10:00:00, 13.35760, 109.26660,   0,  12,   1, -5.00, 1008.70, 15.00, 1,   9, 255, 0.000
64013000, 5301503, 2016-11-26 11:00:00, 13.35760, 109.26660,   0,  10,   1, -5.00, 1009.40, 15.00, 1,   8, 255, 0.000
64013000, 5301503, 2016-11-26 12:00:00, 13.35760, 109.26660,   0,  11,   1, -5.00, 1010.10, 15.00, 1,   8, 255, 0.000
64013000, 5301503, 2016-11-26 13:00:00, 13.35760, 109.26660,   0,  11,   1, -5.00, 1010.60, 15.00, 0,   1, 255, 0.000
64013000, 5301503, 2016-11-26 14:00:00, 13.35780, 109.26660,   0,  11,   1, -5.00, 1011.00, 15.00, 1,   9, 255, 0.000
64013000, 5301503, 2016-11-26 15:00:00, 13.35760, 109.26660,   0,  11,   1, -5.00, 1011.10, 15.00, 0,   8, 255, 0.000
64013000, 5301503, 2016-11-26 16:00:00, 13.35760, 109.26660,   0,  11,   1, -5.00, 1011.00, 15.00, 0,   8, 255, 0.000
64013000, 5301503, 2016-11-26 17:00:00, 13.35760, 109.26660,   0,  11,   2, -5.00, 1010.90, 15.00, 0,   8, 255, 0.000
64013000, 5301503, 2016-11-26 18:00:00, 13.35760, 109.26660,   0,  11,   1, -5.00, 1010.40, 15.00, 0,  10, 255, 0.000
64013000, 5301503, 2016-11-26 19:00:00, 13.35760, 109.26660,   0,  11,   1, -5.00, 1010.20, 15.00, 0,  10, 255, 0.000
64013000, 5301503, 2016-11-26 20:00:00, 13.35760, 109.26660,   0,  12,   1, -5.00, 1009.80, 15.00, 0,   1, 255, 0.000
64013000, 5301503, 2016-11-26 21:00:00, 13.35760, 109.26660,   0,  11,   1, -5.00, 1010.10, 15.00, 1,  21, 255, 0.000
64013000, 5301503, 2016-11-26 22:00:00, 13.35760, 109.26660,   0,  12,   1, -5.00, 1010.80, 15.00, 0,  14, 255, 0.000
64013000, 5301503, 2016-11-26 23:00:00, 13.35760, 109.26660,   0,  12,   1, -5.00, 1011.80, 15.00, 0,   9, 255, 0.000
64013000, 5301503, 2016-11-27 00:00:00, 13.35760, 109.26660,   0,  10,   1, -5.00, 1012.30, 15.00, 0,   8, 255, 0.000
64013000, 5301503, 2016-11-27 01:00:00, 13.35760, 109.26660,   0,  11,   1, -5.00, 1012.90, 15.00, 0,  20, 255, 0.000
64013000, 5301503, 2016-11-27 02:00:00, 13.35760, 109.26660,   0,  12,   1, -5.00, 1013.30, 15.00, 0,   9, 255, 0.000
64013000, 5301503, 2016-11-27 03:00:00, 13.35760, 109.26660,   0,  11,   1, -5.00, 1013.30, 15.00, 1,  10, 255, 0.000
64013000, 5301503, 2016-11-27 04:00:00, 13.35760, 109.26660,   0,  11,   1, -5.00, 1013.00, 15.00, 0,   9, 255, 0.000
64013000, 5301503, 2016-11-27 05:00:00, 13.35780, 109.26640,   0,  11,   1, -5.00, 1012.40, 15.00, 1,   1, 255, 0.000
64013000, 5301503, 2016-11-27 06:00:00, 13.35760, 109.26660,   0,  11,   1, -5.00, 1011.60, 15.00, 1,  12, 255, 0.000
64013000, 5301503, 2016-11-27 07:00:00, 13.35760, 109.26660,   0,  11,   1, -5.00, 1011.20, 15.00, 0,   1, 255, 0.000
64013000, 5301503, 2016-11-27 08:00:00, 13.35760, 109.26660,   0,  11,   1, -5.00, 1011.00, 15.00, 0,   8, 255, 0.000
64013000, 5301503, 2016-11-27 09:00:00, 13.35760, 109.26660,   0,  11,   1, -5.00, 1011.40, 15.00, 1,   7, 255, 0.000
64013000, 5301503, 2016-11-27 10:00:00, 13.35760, 109.26660,   0,  12,   1, -5.00, 1012.00, 15.00, 1,   9, 255, 0.000
64013000, 5301503, 2016-11-27 11:00:00, 13.35760, 109.26660,   0,  10,   1, -5.00, 1012.50, 15.00, 0,   9, 255, 0.000
64013000, 5301503, 2016-11-27 12:00:00, 13.35760, 109.26660,   0,  11,   1, -5.00, 1013.40, 15.00, 0,  28, 255, 0.000
64013000, 5301503, 2016-11-27 13:00:00, 13.35760, 109.26660,   0,  11,   1, -5.00, 1014.00, 15.00, 1,   3, 255, 0.000
64013000, 5301503, 2016-11-27 14:00:00, 13.35760, 109.26660,   0,  11,   1, -5.00, 1014.40, 15.00, 0,   8, 255, 0.000
64013000, 5301503, 2016-11-27 15:00:00, 13.35760, 109.26660,   0,  11,   1, -5.00, 1014.50, 15.00, 0,   7, 255, 0.000
64013000, 5301503, 2016-11-27 16:00:00, 13.35760, 109.26660,   0,  11,   1, -5.00, 1014.30, 15.00, 1,  11, 255, 0.000
64013000, 5301503, 2016-11-27 17:00:00, 13.35760, 109.26660,   0,  12,   1, -5.00, 1013.80, 15.00, 0,   1, 255, 0.000
64013000, 5301503, 2016-11-27 18:00:00, 13.35760, 109.26660,   0,  11,   1, -5.00, 1013.40, 15.00, 0,   8, 255, 0.000
64013000, 5301503, 2016-11-27 19:00:00, 13.35760, 109.26660,   0,  11,   1, -5.00, 1012.80, 15.00, 1,   7, 255, 0.000
64013000, 5301503, 2016-11-27 20:00:00, 13.35760, 109.26660,   0,  12,   1, -5.00, 1012.70, 15.00, 1,   3, 255, 0.000
64013000, 5301503, 2016-11-27 21:00:00, 13.35760, 109.26660,   0,  11,   1, -5.00, 1013.00, 15.00, 0,   9, 255, 0.000
64013000, 5301503, 2016-11-27 22:00:00, 13.35760, 109.26660,   0,  11,   1, -5.00, 1013.10, 15.00, 0,   8, 255, 0.000
64013000, 5301503, 2016-11-27 23:00:00, 13.35760, 109.26660,   0,  12,   2, -5.00, 1013.80, 15.00, 1,  11, 255, 0.000
64013000, 5301503, 2016-11-28 00:00:00, 13.35760, 109.26660,   0,  10,   1, -5.00, 1014.70, 15.00, 1,  11, 255, 0.000
64013000, 5301503, 2016-11-28 01:00:00, 13.35760, 109.26660,   0,  11,   1, -5.00, 1015.40, 15.00, 1,  10, 255, 0.000
64013000, 5301503, 2016-11-28 02:00:00, 13.35760, 109.26660,   0,  12,   1, -5.00, 1015.50, 15.00, 1,  11, 255, 0.000
64013000, 5301503, 2016-11-28 03:00:00, 13.35760, 109.26660,   0,  11,   1, -5.00, 1015.20, 15.00, 1,  11, 255, 0.000
64013000, 5301503, 2016-11-28 04:00:00, 13.35760, 109.26660,   0,  11,   1, -5.00, 1014.80, 15.00, 0,   9, 255, 0.000
64013000, 5301503, 2016-11-28 05:00:00, 13.35760, 109.26660,   0,  11,   1, -5.00, 1013.90, 15.00, 0,  10, 255, 0.000
64013000, 5301503, 2016-11-28 06:00:00, 13.35760, 109.26660,   0,  11,   1, -5.00, 1012.60, 15.00, 0,  14, 255, 0.000
64013000, 5301503, 2016-11-28 07:00:00, 13.35760, 109.26660,   0,  11,   1, -5.00, 1011.80, 15.00, 1,   7, 255, 0.000
64015370, 5301502, 2016-11-25 00:00:00, 17.72360, 110.54540,   0,  10,   8, 27.27, 1011.40, 14.80, 5,  11, 255, 0.000
64015370, 5301502, 2016-11-25 01:00:00, 17.70900, 110.52960,   0,  10,   8, 27.28, 1012.50, 14.80, 6,  15, 255, 0.000
64015370, 5301502, 2016-11-25 02:00:00, 17.69440, 110.51560,   0,  11,   4, 27.18, 1012.60, 14.80, 6,   8, 255, 0.000
64015370, 5301502, 2016-11-25 03:00:00, 17.67980, 110.50320,   0,  10,   2, 27.01, 1012.60, 14.80, 6,   8, 255, 0.000
64015370, 5301502, 2016-11-25 04:00:00, 17.66280, 110.49100,   0,  11,   4, 26.94, 1012.10, 14.80, 6,   9, 255, 0.000
64015370, 5301502, 2016-11-25 05:00:00, 17.64580, 110.47860,   0,  11,   2, 27.15, 1010.70, 14.80, 10,  19, 255, 0.000
64015370, 5301502, 2016-11-25 06:00:00, 17.62640, 110.46460,   0,  11,   5, 27.21, 1009.70, 14.80, 10,  13, 255, 0.000
64015370, 5301502, 2016-11-25 07:00:00, 17.60540, 110.45100,   0,  11,   5, 27.24, 1009.00, 14.80, 5,  22, 255, 0.000
64015370, 5301502, 2016-11-25 08:00:00, 17.58360, 110.43660,   0,   9,   3, 27.23, 1008.80, 14.80, 6,   8, 255, 0.000
64015370, 5301502, 2016-11-25 09:00:00, 17.56140, 110.42160,   0,  11,   5, 27.27, 1009.00, 14.80, 5,  13, 255, 0.000
64015370, 5301502, 2016-11-25 10:00:00, 17.53960, 110.40540,   0,  11,   9, 27.27, 1009.40, 14.80, 8,   7, 255, 0.000
64015370, 5301502, 2016-11-25 11:00:00, 17.51940, 110.38820,   0,   9,   6, 27.27, 1009.80, 14.80, 6,  12, 255, 0.000
64015370, 5301502, 2016-11-25 12:00:00, 17.49880, 110.37100,   0,  10,   7, 27.30, 1010.40, 14.80, 7,  13, 255, 0.000
64015370, 5301502, 2016-11-25 13:00:00, 17.47740, 110.35140,   0,  10,   6, 27.29, 1011.10, 14.80, 5,   8, 255, 0.000
64015370, 5301502, 2016-11-25 14:00:00, 17.45460, 110.33080,   0,  11,   5, 27.27, 1011.20, 14.80, 5,   7, 255, 0.000
64015370, 5301502, 2016-11-25 15:00:00, 17.43080, 110.30980,   0,  10,   9, 27.28, 1010.80, 14.80, 8,  11, 255, 0.000
64015370, 5301502, 2016-11-25 16:00:00, 17.40940, 110.28880,   0,  11,   3, 27.27, 1010.50, 14.80, 6,  14, 255, 0.000
64015370, 5301502, 2016-11-25 17:00:00, 17.38900, 110.26640,   0,  11,   7, 27.29, 1010.20, 14.80, 7,  20, 255, 0.000
64015370, 5301502, 2016-11-25 18:00:00, 17.37220, 110.24480,   0,  10,   5, 27.24, 1009.90, 14.80, 5,  10, 255, 0.000
64015370, 5301502, 2016-11-25 19:00:00, 17.35680, 110.22200,   0,  11,   8, 27.28, 1009.50, 14.80, 7,  10, 255, 0.000
64015370, 5301502, 2016-11-25 20:00:00, 17.34280, 110.20020,   0,  11,   4, 27.28, 1009.20, 14.80, 8,  10, 255, 0.000
64015370, 5301502, 2016-11-25 21:00:00, 17.32700, 110.17760,   0,  10,  10, 27.28, 1009.40, 14.80, 5,  10, 255, 0.000
64015370, 5301502, 2016-11-25 22:00:00, 17.31160, 110.15860,   0,  10,   5, 27.27, 1009.70, 14.80, 6,  11, 255, 0.000
64015370, 5301502, 2016-11-25 23:00:00, 17.29760, 110.13860,   0,  11,   7, 27.26, 1010.30, 14.80, 9,   9, 255, 0.000
64015370, 5301502, 2016-11-26 00:00:00, 17.28540, 110.11660,   0,  10,   7, 27.26, 1010.80, 14.80, 6,  19, 255, 0.000
64015370, 5301502, 2016-11-26 01:00:00, 17.27300, 110.09580,   0,  11,   4, 27.27, 1011.60, 14.80, 6,   8, 255, 0.000
64015370, 5301502, 2016-11-26 02:00:00, 17.26060, 110.07700,   0,  11,   5, 27.28, 1012.40, 14.80, 8,   9, 255, 0.000
64015370, 5301502, 2016-11-26 03:00:00, 17.26060, 110.07700,  62,  10,  12, 27.30, 1012.40, 14.80, 7,  12, 255, 0.000
64015370, 5301502, 2016-11-26 04:00:00, 17.23360, 110.03940,   0,  11,   4, 27.30, 1012.00, 14.80, 7,   9, 255, 0.000
